Starlink 31575

operational
NORAD ID: 59471 Int'l Des: 2024-068 Owner: SPXS Country: US Constellation: starlink
LEOCIRCULAR

About Starlink 31575

Description loading...

Live Position

Loading 3D Globe...

Upcoming Passes

Altitude History

Altitude vs Time

uPlot chart will show altitude changes over time

Two-Line Element Set

1 59471U 24068S 26102.56188438 .00000771 00000-0 37559-4 0 9998
2 59471 42.9970 199.7098 0001830 278.9064 81.1581 15.27581799113744
Epoch: Apr 12, 2026 • Age: 6 hours

Current Status

Altitude 495.1 km
Velocity 7.62 km/s
Sub-Earth Point -43.03°S, 28.24°W
Launch Date Apr 10, 2024
Age 2 years
Type internet

Technical Details

Classification Payload
Mass 730.00 kg
Dry Mass 700.00 kg
Total Mass 730.00 kg
Length 0.30 m
Diameter 4.10 m
Span 29.00 m
Shape Box + pan
Manufacturer SPXS
Bus Type Starlink V2M
Phase Status In Orbit
Owner/State SPXS/US

Large Constellations

Loading constellations...